Regional Weather Roundup
Issued by NWS

Home | Current Version | Previous Version | Graphics & Text | Print | Product List | Glossary On
Versions: 1 2 3 4 5 6 7 8 9 10 11 12 13 14 15 16 17 18 19 20 21 22 23 24 25 26 27 28 29 30 31 32 33 34 35 36 37 38 39 40 41 42 43 44 45 46 47 48 49 50
000
ASUS44 KMEG 022310
RWRTN
TENNESSEE HOURLY STATE WEATHER ROUNDUP
NATIONAL WEATHER SERVICE MEMPHIS TN
600 PM CDT MON MAY 02 2016

TNZ002-004-019-021-049-052-054-088>092-030000-
WEST TENNESSEE

CITY           SKY/WX    TMP DP  RH WIND       PRES   REMARKS
MEMPHIS INTL   PTSUNNY   66  57  72 N6        29.94S
NWS MEMPHIS      N/A     65 N/A N/A MISG        N/A
JACKSON        PTSUNNY   63  58  83 CALM      29.94S
DYERSBURG      CLOUDY    66  54  63 N8          N/A
$$

TNZ008-025-027-028-033-062-065-066-030000-
NORTH MIDDLE TENNESSEE

CITY           SKY/WX    TMP DP  RH WIND       PRES   REMARKS
NASHVILLE      CLOUDY    63  58  83 N6        29.93F
CLARKSVILLE    CLOUDY    60  56  86 CALM      29.93F
SMYRNA         CLOUDY    64  62  93 CALM      29.93F
CROSSVILLE     CLOUDY    62  58  86 CALM      29.96R
$$

TNZ061-075-076-078-094-096-097-030000-
SOUTH MIDDLE TENNESSEE

CITY           SKY/WX    TMP DP  RH WIND       PRES   REMARKS
FAYETTEVILLE   SUNNY     66  61  82 N7        29.92F
$$

TNZ017-018-042-046-047-030000-
NORTHEAST TENNESSEE

CITY           SKY/WX    TMP DP  RH WIND       PRES   REMARKS
TRI CITIES     TSTM      64  54  69 N13G29    29.94R
$$

TNZ012-013-036-069-073-074-030000-
CENTRAL EAST TENNESSEE

CITY           SKY/WX    TMP DP  RH WIND       PRES   REMARKS
KNOXVILLE      LGT RAIN  62  59  90 NE10      29.90F
OAK RIDGE      CLOUDY    63  60  90 VRB3      29.93F
MORRISTOWN     MOCLDY    61  59  94 NE3       29.93F
$$

TNZ083-085-099-030000-
SOUTHEAST TENNESSEE

CITY           SKY/WX    TMP DP  RH WIND       PRES   REMARKS
CHATTANOOGA    CLOUDY    66  63  90 E5        29.90F
$$

SKY/WX REPORTED AS FAIR MEANS FEW OR NO CLOUDS BELOW
12 THOUSAND FEET.





USA.gov is the U.S. government's official web portal to all federal, state and local government web resources and services.